Theta_e
329 339 339 337 337 336 337 337 334 336 335 338 346 339 335 343 338 332 345 349 348 347 341 339 340 339 338 337 336 337 337 335 333 331 330 330 330 330 330 329 329 329 329 330 329 328 328 328 328 329 330 330 330 330 329 328 327 327 327 327 328 328 329 331 333 334 334 334 332 332 334 337 338 339 341 344 346 346 346 347 348 348 348 349 350 350 349
331 335 333 334 336 336 339 339 338 341 341 339 345 343 341 346 344 343 348 344 342 344 340 336 335 332 333 335 335 336 336 333 331 330 330 331 331 330 329 329 329 329 329 329 328 328 328 328 329 330 330 330 330 329 328 327 327 326 327 328 328 329 330 331 332 333 334 334 333 332 334 335 336 337 339 341 344 346 346 346 347 347 347 348 348 348 348
330 334 336 334 336 338 339 339 338 342 343 341 342 342 344 349 346 341 343 341 340 338 333 331 330 329 331 333 334 336 335 332 330 330 330 331 330 329 328 328 329 329 329 329 328 328 329 329 330 330 330 330 329 328 327 326 326 326 327 329 329 329 330 330 332 332 333 333 334 333 334 335 335 335 336 338 341 344 346 346 347 347 347 347 347 347 347
328 331 334 332 335 335 334 335 336 338 341 341 341 341 345 350 347 341 340 342 343 336 329 328 329 330 332 333 334 336 333 331 331 330 330 329 328 328 328 328 329 328 328 329 329 329 329 330 330 330 329 329 327 326 326 325 325 325 326 327 328 329 329 329 331 332 333 333 334 334 334 335 334 334 334 335 337 341 344 346 346 347 347 347 347 347 347
326 327 335 337 336 332 333 335 333 334 338 339 338 339 340 340 341 343 345 346 344 335 330 331 332 331 332 333 334 334 332 331 331 331 329 328 328 328 328 328 328 329 329 329 329 330 330 329 330 329 328 328 326 325 325 324 324 325 326 327 327 327 328 328 330 331 332 333 333 333 334 334 334 333 333 334 336 338 341 344 346 346 346 347 347 347 347
327 328 338 340 335 333 336 336 331 333 338 339 340 339 337 335 336 340 343 342 339 334 332 335 334 331 331 332 332 333 332 331 330 330 329 329 329 328 328 328 329 329 329 329 330 330 330 330 329 329 328 327 326 325 324 324 324 325 327 328 328 327 327 328 330 331 332 332 333 333 334 334 333 333 332 333 335 338 340 342 344 345 346 347 347 346 346
333 334 336 333 334 338 340 335 331 331 333 335 338 336 333 334 334 336 338 337 334 332 330 330 330 329 330 332 332 332 331 329 329 329 329 329 329 329 329 329 329 328 329 330 330 330 330 330 329 328 327 325 325 325 325 325 326 326 328 328 328 328 327 328 330 331 331 331 331 332 333 333 333 333 332 332 334 337 339 340 342 344 345 346 346 346 346
330 337 336 330 333 337 335 331 330 331 332 334 336 336 334 334 332 333 336 335 330 328 328 328 329 329 330 331 331 330 330 329 329 329 329 329 329 329 329 328 327 328 329 330 331 330 330 329 328 327 326 326 325 325 325 326 327 327 328 328 328 328 329 329 330 331 331 331 330 330 331 332 333 332 332 332 333 335 337 339 340 342 344 345 346 345 346
330 340 338 332 333 334 333 334 334 333 334 337 341 342 339 333 330 330 334 334 329 327 328 329 329 330 330 330 330 328 329 329 329 328 328 329 329 328 328 327 328 329 330 330 330 329 328 328 327 326 326 326 325 324 324 325 327 328 328 328 329 330 330 330 331 331 330 330 330 330 330 331 332 332 332 331 333 335 337 338 338 340 342 344 345 345 345
336 345 341 336 338 339 338 338 336 332 330 331 336 342 342 335 329 327 331 333 330 328 329 330 330 330 331 334 333 328 327 328 327 327 328 329 329 327 327 328 328 329 330 330 329 328 327 327 327 327 326 326 325 325 325 325 327 328 328 329 329 330 330 330 330 330 330 330 330 331 331 331 332 332 332 331 332 334 336 337 338 339 340 342 344 344 345
338 347 345 340 342 343 341 341 336 329 327 327 329 336 341 337 329 327 329 329 328 329 330 330 330 331 336 340 336 328 326 327 326 327 329 328 328 327 327 328 329 330 331 330 328 327 327 326 327 326 326 326 325 325 326 326 327 328 329 329 329 330 330 330 330 330 330 330 331 332 332 332 332 332 332 331 332 333 334 335 337 338 340 342 343 344 345
344 350 345 339 340 340 338 341 337 328 327 329 329 335 341 336 329 328 329 329 329 330 330 330 330 332 337 339 333 326 326 327 326 327 328 327 327 328 328 329 330 331 331 330 328 327 327 327 327 326 326 326 325 325 326 327 328 329 329 329 329 329 329 330 330 330 330 330 331 332 332 333 332 332 332 332 332 333 333 334 336 337 338 340 342 343 344
346 349 343 337 340 341 336 336 335 329 329 332 334 339 340 332 328 329 329 329 330 329 329 330 330 330 331 330 327 326 327 327 327 328 328 327 328 329 328 329 330 331 330 328 327 327 328 327 327 327 326 326 326 326 327 327 328 328 329 329 329 329 329 329 329 329 330 330 331 331 332 333 332 332 332 333 333 333 333 335 336 337 338 340 341 342 343
339 347 346 337 337 338 332 330 330 327 329 337 339 337 332 328 329 330 329 329 330 328 328 328 327 327 326 326 326 327 326 326 327 327 327 328 329 328 328 329 330 330 327 326 327 328 328 328 327 327 327 326 326 327 327 327 327 327 328 329 329 328 328 328 328 329 330 330 331 331 332 332 333 332 333 333 334 333 334 336 338 338 339 339 341 342 342
338 343 343 336 334 333 328 329 333 331 332 337 336 331 328 329 330 329 328 329 329 328 327 326 325 326 326 326 327 326 326 327 327 327 328 328 328 328 329 330 330 329 327 327 328 328 328 328 327 327 326 326 327 327 327 327 327 327 327 328 328 328 328 327 328 329 330 330 330 331 331 332 332 332 333 335 334 332 333 336 337 337 338 339 341 342 342
344 347 344 338 335 332 328 330 335 334 332 332 331 329 329 330 329 329 329 328 327 327 327 325 325 326 326 327 327 326 326 327 327 328 328 328 328 329 330 330 329 328 328 328 328 328 328 328 328 327 326 326 326 327 327 326 327 327 328 328 328 328 327 327 328 329 330 330 330 330 331 332 332 332 334 335 334 331 331 333 334 336 338 339 340 341 342
340 345 345 338 330 327 328 329 331 332 330 330 330 330 329 329 329 329 328 328 327 327 326 326 326 326 326 327 326 326 327 327 327 328 328 328 330 331 330 329 327 327 328 328 328 329 328 328 328 327 326 326 327 327 326 326 326 327 328 328 328 328 328 328 328 329 330 329 329 330 330 332 332 332 334 335 334 331 329 330 332 335 337 339 340 341 342
333 334 333 329 327 327 329 330 329 330 330 329 329 329 329 329 329 328 327 328 327 327 327 327 327 326 326 326 326 327 328 327 328 328 328 329 331 331 329 327 326 327 328 328 328 329 328 328 328 327 326 327 327 326 326 325 325 326 327 328 329 329 329 328 328 329 330 329 329 329 330 331 332 332 333 334 334 331 329 329 332 335 337 339 340 341 342
335 336 331 328 328 328 328 329 330 329 330 329 329 329 328 328 327 327 327 327 327 327 327 327 326 326 326 326 327 328 328 327 327 328 328 330 330 329 327 326 327 328 328 328 329 329 328 328 328 327 326 327 327 326 326 325 324 325 327 328 329 329 329 329 328 329 330 329 329 329 329 330 331 331 332 333 334 332 330 329 332 335 337 338 340 341 341
337 336 331 327 327 328 328 330 330 329 329 329 328 328 328 327 327 327 327 327 327 327 326 326 326 327 327 327 328 328 327 327 328 329 330 330 329 327 326 326 327 328 328 328 329 328 328 328 328 326 326 327 327 327 326 325 324 324 325 327 329 329 329 329 329 330 330 329 329 329 329 329 330 330 331 332 332 332 331 331 333 336 337 338 339 341 341
333 331 329 328 329 329 328 328 329 329 329 328 327 327 327 327 327 327 327 327 327 326 326 327 327 327 327 327 327 327 327 328 330 330 331 331 328 326 325 326 327 328 329 329 329 328 328 328 327 327 327 326 326 327 326 326 325 324 323 326 328 329 329 330 329 330 330 330 329 330 330 330 330 331 331 332 332 332 332 332 333 335 337 337 339 340 341
339 336 333 330 332 334 331 328 329 329 327 327 327 326 327 327 327 327 327 326 326 326 326 327 327 327 327 327 326 327 328 330 331 331 331 330 328 326 325 326 327 328 329 329 328 328 328 327 327 327 326 324 325 326 326 325 325 324 324 325 327 328 329 329 330 330 331 331 330 330 331 331 331 332 332 333 333 333 333 334 334 335 336 337 338 340 340
342 336 330 327 330 332 329 327 328 327 326 326 327 327 327 327 326 326 326 326 326 327 327 327 327 327 326 326 326 326 328 330 331 331 330 328 326 325 325 326 327 328 328 328 328 328 327 327 327 326 324 324 325 325 324 324 324 324 324 325 327 328 328 329 330 331 331 331 331 331 331 332 332 333 332 332 333 332 333 334 335 335 336 336 337 340 340
333 330 328 328 329 328 328 328 327 326 326 327 327 327 327 327 326 327 327 326 327 327 327 326 326 326 326 326 326 327 328 329 330 330 329 327 326 326 325 326 328 328 328 328 328 327 327 327 327 325 324 324 325 324 323 322 323 324 324 325 326 327 327 328 330 330 330 331 331 331 331 332 332 332 332 332 332 331 332 332 333 334 335 336 338 339 340
330 329 329 328 328 329 329 328 327 326 327 327 327 327 327 327 327 327 326 326 326 326 326 326 326 326 326 326 327 328 329 329 329 329 328 327 326 326 325 327 328 328 328 328 328 327 327 327 325 324 324 324 324 324 323 323 322 323 324 325 325 326 327 328 329 329 330 331 331 331 331 331 331 332 332 332 332 331 330 330 330 332 333 336 337 339 340
330 329 329 328 329 329 329 328 327 328 327 327 327 327 327 327 327 326 326 327 326 326 326 326 326 326 327 328 329 329 329 328 329 329 328 327 326 326 325 326 328 328 328 328 328 327 327 325 324 324 324 324 324 324 324 323 322 323 324 325 324 324 325 326 327 329 330 330 330 331 330 331 331 332 332 333 333 331 330 329 328 329 331 334 337 338 340
329 329 329 329 328 328 328 328 328 328 327 327 327 327 327 326 326 326 326 326 326 326 326 326 326 327 328 329 330 329 329 330 330 329 328 328 327 326 325 326 327 328 328 328 328 327 326 324 324 325 324 324 324 324 323 322 322 323 324 325 324 323 323 325 326 327 329 330 330 331 330 331 332 332 332 333 332 332 331 329 329 330 331 333 336 337 339
330 330 329 328 328 328 328 328 328 327 327 327 327 326 326 326 326 326 326 326 326 326 326 326 327 327 328 330 330 330 330 330 329 328 328 327 326 326 325 326 327 328 328 327 327 327 325 324 324 325 324 324 324 324 323 322 322 322 323 324 323 322 323 324 324 325 328 330 331 331 331 331 332 332 332 332 332 331 330 329 330 331 331 332 335 337 338
328 328 328 328 328 328 328 327 327 327 326 326 326 325 325 325 325 326 326 325 325 325 325 326 327 328 329 329 329 329 329 328 328 328 328 327 326 326 325 326 327 328 327 327 327 326 324 324 324 324 324 323 323 323 322 321 321 322 322 322 322 323 324 323 323 325 327 329 330 331 331 331 331 332 332 332 331 330 329 329 330 331 331 332 333 336 337
328 327 328 328 327 328 328 327 327 326 325 325 325 325 325 326 326 325 325 325 325 325 326 327 327 328 329 329 328 327 327 326 327 328 328 327 326 325 325 327 328 327 327 327 327 325 324 324 324 324 323 323 323 322 321 321 321 321 321 321 322 323 324 323 324 325 327 329 330 331 331 331 331 332 332 332 331 330 329 330 331 332 333 333 334 335 337
328 328 328 328 328 328 328 327 326 325 325 325 325 325 326 326 325 324 325 325 325 326 327 328 328 328 328 327 327 326 326 326 327 328 327 326 325 325 326 327 327 327 327 328 326 325 324 324 323 323 322 322 322 321 320 320 320 321 321 321 322 323 324 324 324 325 327 329 330 330 331 331 332 332 332 331 331 330 330 330 332 334 334 335 335 336 337
327 327 327 327 327 327 326 326 326 325 325 326 325 325 325 324 324 324 325 325 325 326 327 328 328 327 327 327 326 326 326 326 327 327 326 325 325 326 327 327 327 327 327 327 326 324 323 323 322 322 322 322 321 320 320 321 321 322 322 322 322 323 324 324 325 325 327 328 330 330 331 331 332 332 332 331 330 330 331 332 334 334 335 336 336 337 337
327 327 327 326 326 326 326 326 326 325 325 325 325 324 324 324 325 325 325 326 327 328 328 328 327 327 326 326 326 327 327 326 326 327 326 325 325 326 327 327 327 327 327 326 325 324 323 322 322 322 321 321 320 320 321 322 323 324 324 323 323 323 324 324 325 326 327 327 329 330 331 332 332 332 332 332 332 332 333 334 334 334 335 336 337 337 337
327 326 327 327 326 326 326 325 325 325 325 324 324 324 324 325 326 326 326 327 328 328 328 327 326 326 325 324 324 325 326 326 326 326 326 325 326 327 327 327 327 326 326 325 324 322 322 322 322 322 321 320 321 321 322 323 324 325 325 324 323 324 325 325 326 326 327 327 328 330 331 332 332 333 333 332 332 333 334 334 334 334 334 336 337 337 337
327 327 326 326 325 325 325 325 324 324 323 323 323 324 325 325 326 326 327 328 328 328 327 327 326 325 323 322 322 324 325 326 326 325 325 326 327 327 327 327 327 326 326 324 322 322 322 322 322 321 320 320 321 322 322 323 324 325 325 324 324 325 325 325 326 327 329 328 328 329 331 332 332 333 333 332 333 334 334 334 334 334 334 336 337 338 337
327 326 326 325 324 323 323 323 323 323 323 323 324 324 324 325 326 326 327 327 327 327 327 327 326 325 323 322 322 323 324 325 324 324 325 327 327 327 327 327 327 326 325 323 322 322 322 321 320 320 320 321 321 322 322 322 323 325 325 324 325 326 326 326 326 328 329 328 327 329 331 332 332 332 332 332 333 333 333 334 335 335 335 336 337 337 337
326 325 324 323 322 322 322 322 323 324 324 324 324 324 324 324 325 326 326 326 327 327 327 327 326 325 324 323 323 323 324 324 324 324 325 327 327 327 327 326 326 326 324 323 322 322 321 320 319 320 320 321 321 321 322 322 323 324 325 325 325 326 326 326 327 328 328 328 328 329 330 331 332 332 332 332 333 334 334 334 335 335 336 335 336 337 337
325 323 322 322 322 322 322 323 323 323 324 324 324 324 324 324 325 325 325 326 327 327 327 326 326 325 325 324 324 324 324 324 324 324 325 326 327 327 326 326 326 325 324 322 322 321 320 319 319 320 321 321 321 321 322 323 324 325 325 325 326 326 326 327 328 328 328 328 328 329 329 331 332 332 333 333 333 334 334 334 334 335 335 335 336 337 337
323 323 323 322 322 322 322 322 322 322 324 324 324 324 324 324 324 324 325 326 327 327 327 326 326 326 325 325 324 324 324 324 324 324 325 326 327 327 326 325 325 324 323 322 321 320 319 319 319 319 320 321 320 321 322 324 325 325 325 325 326 327 327 328 328 328 328 329 329 329 330 331 331 332 333 333 333 333 334 334 334 334 334 335 336 337 337
323 323 323 322 322 321 322 322 321 322 323 323 323 323 324 324 324 325 326 327 327 327 327 326 326 327 326 325 323 322 323 323 324 324 325 327 327 326 325 325 324 323 322 321 320 320 320 319 318 319 320 320 320 321 323 325 326 326 325 326 326 326 327 328 328 328 328 329 329 329 330 331 331 331 332 332 332 333 332 332 332 333 334 335 336 336 336
324 324 324 323 322 321 321 321 321 322 322 322 322 322 323 324 324 326 327 327 327 327 326 326 327 327 326 325 324 323 323 323 323 324 326 327 327 326 325 324 323 322 322 321 320 320 320 318 317 318 320 319 319 321 323 324 326 326 326 326 326 326 327 327 327 328 328 329 329 329 330 330 330 331 331 331 331 332 332 331 332 332 333 334 336 336 337
324 324 324 322 321 321 321 321 322 322 322 322 321 322 322 323 325 326 326 326 326 326 326 326 326 325 325 325 325 325 324 324 324 324 325 326 326 326 324 323 322 322 322 321 320 320 320 318 317 318 319 318 319 321 323 324 325 326 326 326 326 326 327 327 327 327 328 329 329 329 329 330 330 330 329 329 331 331 331 331 331 332 333 334 335 335 336
324 324 323 322 322 321 321 321 322 322 322 322 321 322 322 323 324 325 325 325 325 326 326 326 326 325 324 324 325 326 326 325 324 324 325 326 326 325 323 322 322 322 322 321 320 320 319 318 317 317 318 318 318 320 322 324 325 325 325 326 326 327 327 327 327 328 328 329 329 329 329 330 330 330 329 329 330 331 331 331 331 332 333 334 334 335 336
324 324 322 322 322 322 322 322 322 322 322 322 321 322 322 322 323 325 325 324 325 326 326 326 326 325 323 323 323 324 325 325 325 325 325 325 325 324 323 322 322 322 321 321 320 320 319 317 316 316 317 317 318 319 322 323 324 324 324 325 327 327 327 327 327 327 327 328 328 329 329 329 330 330 330 330 330 330 330 330 330 331 332 333 334 334 335
324 323 322 322 322 322 322 322 322 322 322 322 322 322 322 321 322 324 324 324 324 325 325 326 326 324 322 321 321 322 323 324 325 325 325 325 325 324 323 322 322 322 321 320 320 320 319 316 314 315 317 317 317 318 321 322 323 323 323 324 326 326 326 326 326 327 326 327 328 328 328 328 329 329 329 329 330 330 330 330 330 329 330 331 332 333 333
325 323 322 323 322 321 321 321 321 322 322 322 322 322 321 321 322 323 324 324 324 325 325 326 326 325 322 321 321 322 322 322 323 324 325 325 325 324 323 322 322 322 321 320 320 320 318 314 312 314 316 316 316 318 320 322 322 323 323 323 325 325 325 325 326 326 326 327 327 328 327 327 328 328 328 328 329 329 329 329 329 328 328 329 331 331 331
326 324 323 323 321 321 321 321 321 321 321 321 322 322 322 321 321 322 322 323 324 324 325 325 326 325 323 321 321 322 322 322 322 323 324 325 325 324 323 322 322 321 321 320 320 319 316 311 310 313 315 315 315 317 318 320 322 323 322 322 323 324 324 325 325 325 325 326 326 327 327 326 326 327 328 328 328 328 328 328 329 329 329 330 330 330 331
325 324 323 322 322 321 320 320 320 321 320 321 321 321 321 321 321 321 322 323 323 324 325 325 325 325 325 323 321 322 322 322 322 323 324 325 325 324 323 322 322 321 320 320 319 318 314 309 307 309 312 313 315 316 316 317 320 322 322 322 322 323 323 324 323 323 324 325 325 325 326 326 325 326 326 326 326 326 327 327 327 328 329 329 329 329 330
323 323 322 322 322 321 320 320 320 320 320 321 321 320 321 321 321 322 322 323 323 324 325 325 324 325 325 324 323 323 323 323 322 323 324 325 325 324 323 322 322 321 320 319 319 318 315 310 307 306 308 311 314 315 315 315 317 320 322 323 322 322 322 322 322 322 323 323 323 324 324 324 324 325 324 324 325 325 325 325 326 326 326 327 327 327 328
322 322 321 321 321 321 321 320 320 320 320 320 320 321 321 322 322 322 322 322 323 324 324 325 325 324 324 324 324 324 324 324 323 323 324 325 325 324 323 322 322 321 320 319 318 317 315 312 308 306 306 308 312 314 314 314 315 318 320 322 323 322 321 321 321 321 322 322 322 323 323 323 323 323 323 323 323 323 323 324 324 324 325 326 326 326 326
321 321 321 321 321 321 321 320 320 320 320 320 320 321 321 321 322 322 322 322 323 324 324 324 325 324 324 324 325 325 325 324 323 323 324 325 325 324 323 322 322 321 320 319 318 317 316 314 312 309 307 306 308 312 314 313 313 315 318 320 321 322 322 321 321 321 321 321 322 322 322 322 322 322 322 323 323 323 323 323 324 324 325 325 325 325 325
321 321 321 321 321 322 321 321 320 320 320 320 320 320 321 321 321 322 322 322 323 323 324 324 324 324 324 324 325 324 324 324 323 323 324 325 325 324 323 322 322 321 320 319 318 317 316 316 314 312 308 305 306 310 312 313 312 313 314 316 317 318 319 320 320 320 320 320 321 321 321 321 321 321 322 322 322 323 323 323 324 323 324 323 323 322 322
Wind_Speed
4 2 3 3 5 4 2 4 3 3 3 2 4 4 5 7 6 3 6 9 8 7 7 6 7 9 10 12 13 12 11 10 7 4 2 3 5 6 9 10 12 15 15 15 15 17 18 19 19 18 17 19 21 25 27 26 25 23 23 24 24 24 22 20 19 19 20 21 21 20 19 19 18 17 16 15 14 13 13 13 14 16 17 19 21 22 22
7 8 3 3 6 5 5 5 4 4 4 3 4 5 4 6 5 4 8 9 6 5 5 7 8 11 12 11 11 12 12 9 5 3 2 4 5 7 9 9 10 11 11 13 16 19 20 21 20 20 20 23 25 27 27 27 26 24 23 23 24 24 23 22 21 21 21 21 21 20 19 19 18 18 18 16 14 14 13 12 11 13 14 17 20 22 22
6 8 6 7 7 6 6 6 6 6 7 6 6 4 3 4 5 4 7 7 2 4 5 6 6 8 9 9 11 12 11 7 4 2 2 5 6 7 7 7 7 8 10 13 16 18 20 21 21 22 24 26 28 28 28 27 26 25 24 24 23 23 24 23 22 21 21 21 21 20 19 19 18 18 19 18 17 15 14 13 12 12 13 15 18 20 22
4 5 5 8 9 9 7 6 6 5 4 4 2 1 1 3 6 7 7 4 3 3 5 6 5 8 9 10 12 12 10 8 5 2 3 4 5 6 6 6 8 10 13 16 17 18 19 20 22 24 26 28 29 29 29 28 28 27 25 24 24 24 24 24 22 21 20 21 21 20 19 18 18 18 18 19 18 16 15 14 14 13 14 15 17 19 21
1 3 3 6 8 7 3 2 2 1 1 4 3 2 3 1 7 7 4 5 5 4 7 6 4 6 8 10 11 11 9 7 5 5 3 3 5 6 7 8 10 13 16 17 18 18 19 21 23 24 26 28 29 29 30 30 29 28 26 25 25 25 24 24 22 20 20 21 22 21 20 18 17 17 17 17 17 16 16 15 15 15 15 15 16 17 19
4 4 3 5 4 2 3 5 3 3 3 4 6 2 3 3 1 3 3 3 3 5 7 7 6 7 8 9 9 8 6 5 5 4 3 4 6 7 8 10 12 15 17 18 18 19 20 22 23 25 26 27 28 29 30 30 30 28 26 25 24 24 24 23 21 20 20 21 21 21 20 19 18 17 16 17 17 16 16 16 16 17 16 15 15 16 18
5 2 4 4 2 5 5 6 3 4 6 7 9 6 3 3 1 4 6 5 5 7 7 7 8 8 8 7 7 5 5 5 4 2 3 4 5 7 8 11 14 17 17 18 19 20 21 23 24 25 26 27 28 29 30 30 29 28 26 25 24 24 23 22 21 20 20 21 21 21 20 20 18 17 16 17 17 17 17 16 16 17 17 16 16 16 17
3 2 3 2 5 6 4 6 3 6 8 6 7 5 4 2 1 3 7 5 5 7 6 6 7 8 8 8 6 5 4 5 5 3 4 4 4 7 10 14 17 18 18 18 20 21 22 23 24 25 26 27 28 29 29 29 28 27 26 25 23 23 22 21 20 20 20 21 21 20 20 20 19 17 17 17 17 18 18 18 17 17 17 16 16 16 17
3 4 2 0 3 4 3 3 2 4 4 3 4 2 3 4 2 2 6 5 4 5 5 7 11 11 9 6 4 4 3 4 5 5 6 4 5 10 13 15 17 18 18 19 20 22 22 23 23 24 25 26 28 28 28 28 28 26 25 24 23 22 22 21 20 19 20 21 21 20 20 20 19 18 17 18 18 18 19 20 19 18 17 16 16 16 17
3 5 3 2 2 3 5 7 6 2 2 4 6 5 3 5 4 6 8 7 6 7 8 10 13 11 5 1 2 3 1 4 5 5 5 5 8 12 14 16 18 18 19 19 20 21 22 22 23 24 25 26 27 28 28 28 27 26 25 24 23 22 22 21 20 20 19 20 20 20 20 20 19 18 17 18 19 19 20 21 21 19 17 16 16 17 16
2 5 4 2 2 3 6 8 5 2 3 7 6 4 4 5 8 11 11 10 10 9 11 14 12 7 3 4 5 3 3 4 4 4 5 7 10 12 13 16 19 19 20 20 21 21 22 22 23 24 26 26 26 27 28 27 26 25 24 23 23 23 23 22 21 20 19 19 20 20 20 20 19 19 18 18 19 20 21 21 22 21 18 16 16 16 16
2 4 3 2 3 2 4 5 3 4 6 5 6 2 6 7 14 16 14 14 13 11 13 14 10 5 5 6 5 5 5 5 5 5 7 9 12 13 15 17 19 19 20 21 22 22 21 22 23 24 26 26 27 27 27 27 26 25 24 23 23 23 23 23 22 21 19 19 20 20 21 21 20 19 19 19 20 21 22 22 22 22 20 16 15 16 17
2 3 2 2 3 3 4 3 4 8 5 4 4 3 6 11 19 18 16 16 15 12 13 12 8 7 7 5 5 5 5 6 6 7 9 10 12 14 16 19 20 21 22 22 22 21 21 22 23 24 25 26 27 27 26 26 26 25 25 24 24 23 24 23 22 21 20 20 20 21 21 21 20 20 19 19 20 22 22 22 22 22 20 17 16 17 19
2 3 2 0 3 4 3 3 6 9 5 1 3 4 7 18 23 18 16 16 14 11 11 9 7 6 6 5 4 5 6 7 7 9 10 11 13 15 18 19 20 22 23 22 21 21 21 21 22 23 24 26 26 26 26 27 27 26 26 25 24 24 24 23 23 21 21 20 20 21 21 21 20 20 19 19 20 21 21 21 21 21 20 17 16 18 19
2 3 3 1 2 4 5 7 5 4 3 4 7 10 13 20 22 18 16 15 12 11 9 8 7 6 6 6 6 6 7 8 9 10 11 13 15 18 20 20 21 22 22 22 21 21 21 21 22 23 24 26 26 27 27 28 27 27 26 26 25 24 24 23 23 22 21 21 21 21 21 20 20 20 19 18 19 19 20 20 20 21 20 17 16 18 19
3 3 1 3 3 3 6 6 3 3 4 8 15 20 19 19 19 17 16 13 11 10 8 7 7 7 7 7 6 7 7 9 10 10 11 13 16 18 19 20 21 21 21 22 22 22 22 22 22 23 24 26 27 28 28 28 28 27 27 26 26 25 24 23 22 22 21 21 21 21 21 20 20 20 19 19 19 18 18 19 20 20 19 17 16 17 18
3 4 4 4 2 1 5 6 5 9 12 13 16 19 20 20 18 15 14 13 11 10 7 6 6 7 7 6 7 8 9 10 10 10 12 14 15 17 19 20 20 20 20 22 23 23 23 23 23 23 24 26 27 28 28 28 29 29 28 27 27 26 24 23 23 22 22 21 21 21 20 20 20 20 19 19 19 19 18 18 19 20 18 16 14 15 17
1 1 1 1 2 3 7 10 12 16 18 17 15 15 17 18 15 13 12 10 9 7 6 6 7 6 6 6 8 9 9 9 9 11 13 13 14 16 18 19 20 20 20 21 22 23 24 23 22 23 24 25 26 27 28 28 29 29 29 28 26 25 24 23 23 22 22 21 21 21 19 19 19 19 19 20 19 20 19 19 19 19 18 15 13 13 16
2 1 2 2 2 5 10 15 16 16 16 15 13 11 12 13 12 10 9 7 5 5 5 6 6 6 7 8 8 7 7 8 10 12 13 13 15 17 19 19 20 20 21 21 22 23 24 23 22 23 24 25 25 26 27 28 29 29 29 26 25 24 24 23 23 22 22 21 21 21 20 19 18 18 18 19 20 20 20 19 18 18 17 16 14 13 14
2 2 3 1 2 4 10 14 15 15 14 13 11 9 9 10 9 8 7 6 5 5 5 5 6 6 7 7 6 7 8 10 11 12 13 14 16 18 19 19 19 20 20 21 22 23 24 23 22 23 25 26 26 26 27 28 28 29 28 25 24 25 24 23 22 22 22 21 21 21 20 19 18 18 18 18 19 19 19 20 19 17 16 16 15 14 13
2 1 1 2 3 2 7 12 13 14 13 12 11 10 9 9 8 7 6 5 6 6 6 5 5 5 5 6 7 9 10 11 12 12 13 15 17 19 19 19 19 19 20 21 21 22 23 23 23 24 25 26 26 26 27 28 28 29 28 25 24 24 24 23 22 22 21 21 20 20 20 19 18 17 17 17 18 18 18 19 19 17 16 16 16 15 14
1 3 8 11 5 2 10 15 15 14 14 12 12 11 10 8 8 7 6 6 6 6 5 4 3 4 6 8 10 11 11 12 12 13 15 16 18 19 19 19 19 19 19 20 20 21 23 23 23 23 25 27 27 26 27 27 27 27 27 25 23 23 24 24 24 23 22 21 21 20 20 19 18 17 16 15 16 17 18 18 18 18 17 16 16 16 16
4 7 17 21 8 2 13 20 17 16 15 13 12 12 10 8 7 6 6 5 4 4 3 3 4 6 9 10 11 12 11 12 13 13 15 17 18 19 19 20 20 19 19 19 20 21 23 23 22 24 27 28 26 25 25 27 27 27 27 26 23 22 23 24 23 23 22 21 20 20 20 19 19 18 18 17 16 17 17 18 17 17 17 16 15 15 17
1 5 20 23 6 1 13 20 17 17 15 12 12 11 8 8 7 6 5 4 3 2 3 4 6 8 10 11 12 12 11 11 12 13 14 16 17 18 19 19 19 20 20 20 21 22 23 23 23 26 28 27 24 24 25 27 27 28 28 26 24 23 23 22 22 23 22 21 20 20 19 19 19 19 19 19 19 18 17 16 16 16 16 15 14 14 17
2 6 20 21 5 2 14 19 17 16 13 10 11 10 8 8 7 6 4 3 2 3 4 5 6 8 9 10 11 11 11 11 12 13 15 16 17 18 19 18 19 20 20 20 21 22 22 22 24 27 27 25 23 24 27 28 28 28 29 28 26 24 23 23 22 23 23 21 20 20 20 19 19 19 19 19 21 21 19 17 16 16 15 14 14 13 15
2 8 19 16 6 8 16 17 15 14 12 10 10 9 8 7 6 5 5 3 3 3 3 5 6 8 9 9 10 10 11 11 12 13 15 17 18 19 19 19 19 20 20 21 21 21 22 23 25 26 24 23 24 27 29 30 30 29 29 28 27 26 25 24 23 23 22 21 20 20 19 19 19 19 18 18 19 21 21 20 19 18 16 15 14 14 15
7 15 20 13 8 12 15 14 14 15 12 10 10 9 8 7 6 6 6 4 3 4 5 6 7 8 8 9 10 10 11 12 13 14 16 17 18 19 19 19 19 20 20 21 20 20 22 24 25 24 23 23 25 28 30 31 31 30 29 27 27 27 27 26 24 23 21 20 19 18 18 18 18 18 18 18 18 19 20 21 21 20 18 16 14 14 15
14 19 16 8 8 14 14 11 13 14 11 9 9 7 7 6 6 6 6 4 4 6 7 8 8 9 9 9 10 11 12 13 14 15 16 17 18 19 19 19 19 19 20 20 19 20 23 25 25 24 23 24 26 28 30 31 31 31 30 28 28 28 28 28 26 22 19 18 18 16 16 16 16 16 17 18 18 19 20 20 20 20 19 18 16 15 15
15 15 9 4 8 15 15 12 12 12 9 8 8 6 5 6 6 5 4 4 5 7 9 8 8 9 10 10 11 13 13 14 15 16 17 17 18 19 19 19 19 19 19 18 18 20 23 25 25 25 25 26 27 28 30 30 31 31 31 30 28 27 27 28 26 20 16 17 17 16 16 16 16 15 16 17 18 19 20 20 19 18 19 19 18 17 17
13 10 6 6 12 15 14 12 12 10 8 7 6 5 6 6 4 3 4 6 7 8 9 9 8 9 10 11 12 13 14 15 16 16 16 17 18 19 19 18 19 19 18 18 19 21 24 25 25 25 27 27 28 29 30 31 31 30 31 31 28 25 26 27 24 18 15 16 17 16 17 16 15 15 16 16 17 18 19 19 18 17 17 17 16 16 15
12 9 9 11 14 13 12 12 11 8 7 6 5 4 4 3 4 5 6 8 8 8 8 8 8 9 10 12 13 14 15 16 16 15 16 17 18 18 17 18 19 19 19 19 21 23 25 25 24 25 27 28 29 30 31 31 31 31 31 31 29 26 25 25 21 17 15 16 16 17 17 16 15 15 15 15 16 17 18 18 17 16 15 15 15 14 12
14 12 12 13 13 12 12 11 9 7 7 5 2 2 3 4 6 7 8 8 8 8 7 8 9 10 11 13 14 15 16 16 16 15 15 16 17 16 16 17 18 18 18 19 22 25 25 24 24 26 27 28 30 30 30 30 30 31 31 30 28 27 26 23 19 17 16 16 16 17 17 16 15 15 15 15 16 16 16 16 16 15 14 15 14 12 9
15 15 15 15 14 13 12 9 7 6 4 2 1 3 4 5 6 7 8 8 7 7 7 8 10 11 13 14 16 16 17 16 15 14 15 16 15 15 15 16 17 17 17 19 23 24 24 23 24 26 27 29 30 29 28 30 31 30 28 26 26 27 26 22 17 16 17 16 16 17 17 15 15 14 15 15 15 14 14 15 15 15 15 15 13 9 5
8 9 12 13 11 10 8 7 6 4 1 2 3 4 5 5 7 8 8 7 7 7 8 9 11 12 13 15 16 16 16 15 14 14 15 15 15 14 15 15 16 16 16 19 21 22 21 22 24 25 27 28 28 27 29 32 32 28 26 26 26 26 25 20 16 15 16 17 17 17 16 15 14 13 13 14 13 13 13 14 15 16 15 13 10 7 5
6 7 9 9 6 4 4 4 3 2 2 3 4 5 6 7 8 8 7 6 7 7 8 10 11 12 13 14 15 15 14 13 14 15 15 15 15 15 15 15 15 16 17 19 20 20 21 22 24 25 27 28 27 27 29 33 33 30 27 27 27 25 21 18 15 13 13 16 17 16 14 14 13 13 13 13 12 12 14 15 16 16 14 10 8 7 7
8 9 9 7 4 3 1 1 3 4 4 4 4 5 6 6 6 6 6 6 7 7 8 9 10 11 12 14 14 14 13 13 14 15 15 14 14 14 15 16 16 17 19 21 20 19 21 23 24 26 27 27 27 27 30 34 36 32 27 26 25 22 17 16 15 13 12 15 17 15 13 12 12 12 12 12 12 12 13 15 15 14 11 9 10 9 7
8 7 7 6 4 3 1 2 3 4 4 4 4 4 4 5 4 5 6 6 6 7 8 10 10 12 13 14 14 14 14 14 15 16 14 14 14 14 14 15 15 17 20 22 21 20 22 23 25 26 26 26 28 29 32 36 36 31 25 23 23 19 16 16 15 15 15 17 16 14 13 12 11 11 11 11 11 11 12 13 13 11 10 8 9 8 7
9 7 6 5 4 1 2 3 4 4 4 3 3 4 5 5 6 7 7 6 6 7 9 10 10 12 14 15 15 14 14 15 15 15 14 13 13 13 14 15 15 17 20 21 21 21 23 25 26 26 26 28 29 31 35 38 36 27 22 21 20 17 16 15 16 17 19 18 15 13 12 12 12 11 11 11 11 11 11 13 12 10 9 8 7 8 9
9 7 6 5 3 2 3 4 4 4 4 4 4 5 6 7 8 8 7 6 6 7 9 9 10 13 15 15 14 14 14 14 14 14 13 13 12 13 14 14 15 16 18 19 20 21 23 26 27 26 27 29 31 33 37 38 32 23 19 19 18 17 16 16 16 18 18 16 14 13 12 11 12 12 11 11 11 11 13 14 13 10 9 9 7 7 9
9 8 7 5 4 4 5 5 3 3 4 5 5 5 6 7 8 9 8 6 6 7 9 10 11 13 14 14 13 13 13 13 14 14 14 13 12 13 14 14 14 15 16 17 19 21 23 26 27 26 26 29 32 33 36 37 29 20 18 17 15 15 17 17 17 19 19 16 15 13 12 11 12 11 10 11 12 12 13 14 12 9 7 6 4 5 7
9 8 7 6 6 6 6 5 4 4 5 5 5 5 6 7 8 8 8 6 6 7 9 10 11 13 14 14 13 13 14 14 14 14 14 13 12 13 14 15 15 15 15 16 19 21 23 26 27 25 26 29 31 32 35 35 28 20 17 16 14 14 17 19 19 20 20 18 16 14 11 10 11 10 10 12 13 13 13 14 14 10 7 3 0 2 4
9 9 8 7 7 7 7 7 7 7 6 6 5 5 6 7 7 7 7 7 7 8 10 10 11 12 13 13 13 13 13 14 14 13 13 12 12 13 15 15 15 14 14 16 19 21 23 26 26 25 26 30 30 30 33 34 28 19 17 17 15 14 16 19 19 19 18 17 15 13 11 10 11 12 12 13 13 12 13 14 13 10 6 3 3 4 6
8 9 9 8 8 8 9 9 9 9 8 7 5 5 6 7 7 8 8 8 8 9 10 9 9 10 12 13 13 12 13 14 13 13 12 11 10 11 14 15 14 14 15 16 18 20 23 25 25 24 26 29 29 28 31 33 28 20 16 16 15 14 15 17 19 19 18 16 16 15 13 11 12 13 13 12 12 12 13 13 11 7 4 4 4 6 7
7 8 9 9 8 9 10 11 12 12 11 9 7 6 6 7 8 8 9 9 9 9 9 8 7 9 12 12 12 12 13 14 14 13 12 11 9 9 12 14 13 13 14 16 17 20 23 25 24 24 25 28 29 28 29 31 29 23 17 15 14 14 16 19 21 20 19 17 17 17 16 14 13 12 11 10 11 12 13 13 10 6 5 6 8 8 9
8 9 10 9 8 9 9 11 12 13 13 11 9 8 7 7 8 8 9 10 10 10 9 8 7 8 9 9 10 11 12 13 14 14 12 11 10 10 12 13 12 12 13 15 17 19 22 23 23 23 24 26 28 27 27 29 30 26 20 15 14 14 17 19 20 20 19 19 18 18 18 16 15 13 11 10 11 11 11 10 8 6 7 9 10 10 9
9 10 10 9 7 7 6 7 8 10 12 13 13 11 8 7 7 8 10 11 11 10 9 8 8 8 7 7 9 11 12 12 13 13 11 10 10 10 11 13 12 12 13 15 17 19 21 22 21 21 23 25 26 26 25 26 28 28 24 19 16 15 16 18 18 18 19 19 19 18 17 16 15 14 13 13 14 14 13 10 9 9 10 11 12 12 12
9 10 9 8 7 6 5 6 8 9 11 12 13 13 11 8 8 9 11 12 12 11 10 9 8 8 8 8 9 12 13 14 14 12 10 9 9 9 11 12 12 11 12 14 16 18 20 20 20 20 21 22 23 24 24 24 25 26 26 23 19 16 16 16 16 16 17 18 18 17 16 15 15 14 13 14 16 16 16 15 15 16 16 16 17 17 17
10 10 10 9 8 7 6 7 9 10 11 10 11 12 12 11 10 11 12 13 13 12 11 10 9 8 8 9 9 11 13 15 15 13 10 8 8 9 10 11 11 11 12 13 15 17 19 19 18 19 19 20 21 22 22 23 23 23 24 25 23 20 18 18 18 17 17 17 17 16 16 16 15 15 15 15 15 16 16 16 17 18 18 18 18 18 18
9 9 10 9 9 8 8 9 10 11 11 10 9 9 9 10 11 12 12 12 12 12 11 10 10 9 9 9 10 11 13 15 16 14 11 8 7 9 10 10 10 10 11 12 13 16 18 18 18 18 18 19 19 20 20 21 21 21 22 23 24 23 22 21 20 20 19 18 17 16 16 15 15 14 14 14 14 15 15 16 17 17 17 17 17 17 17
7 8 8 8 8 8 8 10 11 11 10 8 8 8 8 9 11 12 12 12 12 12 11 10 10 10 10 10 10 11 12 14 15 14 11 7 6 8 10 10 9 9 10 10 12 15 17 18 18 19 18 18 17 17 18 19 20 20 20 21 21 22 21 21 20 19 19 19 18 18 17 17 16 16 15 15 15 15 16 16 17 17 17 17 18 18 18
6 7 7 8 8 8 8 9 9 9 8 7 8 9 10 11 12 13 12 12 13 13 12 10 9 9 9 10 10 11 12 13 14 14 11 7 6 8 10 10 9 9 9 9 10 13 16 18 19 19 19 17 16 15 16 17 18 18 19 19 19 19 19 19 18 17 17 17 17 18 18 18 19 18 18 18 18 18 17 18 18 18 18 18 19 19 19
7 8 8 9 9 9 9 10 10 9 8 8 9 10 10 11 13 14 14 13 13 13 12 10 8 7 8 10 11 11 11 12 13 13 10 7 6 8 9 9 9 8 8 8 10 13 15 17 19 19 18 16 14 14 14 15 16 16 17 18 18 18 18 18 18 18 17 17 16 16 16 17 17 18 18 18 18 18 18 18 18 18 18 18 18 19 19
Wind_Direction
360 311 236 180 107 97 103 97 111 128 123 117 105 129 159 138 131 218 210 171 185 212 194 183 191 187 194 203 202 199 191 183 183 193 240 304 330 335 331 328 320 318 320 322 328 334 335 333 330 329 329 328 330 333 335 336 335 331 329 327 326 325 322 319 316 314 314 316 316 315 315 318 318 317 317 313 303 298 292 279 269 266 262 259 255 251 249
14 1 1 114 106 89 51 33 38 69 69 54 75 109 130 109 116 174 160 159 205 230 187 187 196 192 194 196 192 187 180 177 184 201 265 290 293 306 315 316 313 315 319 322 327 330 331 330 329 327 327 328 330 331 332 332 331 329 327 325 324 322 319 316 313 310 310 312 313 312 312 314 316 316 316 313 303 291 285 281 274 270 266 262 257 254 253
360 355 36 70 78 91 79 43 31 55 70 61 60 92 123 86 78 96 118 132 233 264 181 168 180 183 178 175 180 182 178 173 171 188 268 276 280 299 314 320 321 320 323 327 329 329 329 328 326 325 326 327 328 329 329 328 327 326 323 321 320 318 316 316 314 311 309 309 309 310 310 311 314 316 316 316 312 298 284 278 276 273 268 264 259 257 256
340 338 61 86 81 77 68 40 20 28 68 93 86 106 155 131 122 106 100 131 224 228 151 135 153 169 168 176 184 184 180 175 179 217 269 287 300 314 320 321 322 324 329 333 332 329 327 325 324 325 326 327 327 328 327 326 324 323 319 316 314 313 313 313 314 311 307 305 306 307 308 309 310 313 316 317 316 308 294 283 277 272 268 265 262 259 257
305 305 57 88 83 68 33 318 327 2 100 130 126 44 5 96 133 130 149 202 209 172 141 136 153 170 178 192 192 186 188 196 218 243 258 300 316 319 316 315 321 328 332 333 330 329 328 326 326 327 327 327 327 326 325 323 322 321 318 314 311 310 310 311 311 310 305 303 305 306 307 307 307 309 313 315 315 312 303 292 281 273 267 264 261 258 256
171 219 8 43 72 117 234 262 251 198 176 138 125 97 346 343 106 139 153 168 155 141 147 161 175 184 194 198 190 188 201 215 223 233 262 309 317 314 309 313 323 330 332 330 328 329 329 327 327 327 327 326 325 323 323 322 322 322 319 316 313 312 311 309 308 307 304 302 304 306 306 306 305 305 309 311 312 310 303 296 287 280 272 264 259 256 254
153 192 31 59 198 233 256 305 312 147 134 117 106 84 15 353 52 121 111 113 144 147 154 170 178 187 190 179 176 186 203 208 206 238 301 306 309 310 312 321 329 331 330 329 328 327 327 327 327 326 326 325 324 324 324 324 323 323 320 317 316 314 311 308 306 306 305 303 304 304 305 305 304 303 304 306 308 307 302 297 291 285 278 269 262 258 255
138 88 59 135 237 269 324 349 5 113 113 107 92 55 353 328 323 138 128 132 150 140 146 162 157 160 162 156 164 179 191 205 218 274 299 291 299 317 327 331 331 331 329 328 326 325 326 327 327 326 326 326 326 327 327 325 324 323 321 319 317 315 313 310 308 307 307 305 303 302 302 303 303 302 300 302 306 306 303 299 294 290 283 274 267 265 261
133 116 106 260 319 323 336 318 244 151 139 163 130 113 263 273 291 171 140 135 146 139 146 154 146 143 140 134 152 165 183 230 247 278 288 284 309 326 332 332 331 329 326 324 324 325 327 328 327 326 327 327 328 329 328 326 323 322 321 319 317 315 314 312 310 308 308 307 305 302 300 300 301 300 297 298 303 304 303 302 300 295 287 277 270 268 264
105 106 87 38 16 302 248 227 239 277 261 200 142 116 257 268 236 183 151 140 156 152 147 154 150 141 135 177 212 174 214 274 278 288 281 290 321 328 330 329 326 323 321 323 327 328 328 328 327 327 327 328 329 330 329 326 324 322 320 317 315 314 314 313 311 310 308 307 305 302 299 298 298 297 294 295 300 302 302 302 302 299 292 280 272 268 264
102 109 113 160 195 249 229 220 246 327 169 177 127 75 293 243 191 179 161 150 159 159 158 162 154 137 159 233 241 251 302 303 301 295 285 303 320 324 325 325 322 319 320 325 328 329 328 328 327 327 327 328 329 331 330 329 325 322 319 317 315 313 312 313 312 310 309 307 304 302 298 295 294 293 291 292 296 299 300 300 299 298 292 283 275 271 265
127 111 114 196 216 246 240 237 223 146 147 132 93 46 271 210 175 177 168 156 157 157 160 165 163 167 203 236 266 280 292 299 297 295 299 309 316 319 321 321 319 319 322 326 328 330 330 328 328 328 327 327 328 330 331 330 327 322 319 317 316 314 312 311 311 309 307 304 303 301 296 292 290 289 289 290 293 296 298 298 297 295 290 283 276 271 267
115 109 121 241 256 238 237 247 161 149 129 68 95 219 233 174 166 175 171 160 159 161 165 172 187 210 223 249 276 276 286 293 286 292 304 308 313 318 317 317 318 320 322 326 328 329 329 328 329 329 328 327 328 329 331 331 328 323 319 316 315 315 313 312 310 308 305 302 301 300 296 292 288 287 288 289 291 294 297 298 297 295 290 283 279 278 275
107 115 125 196 284 242 195 117 121 138 129 94 210 213 173 159 162 168 169 166 168 173 178 184 198 218 235 252 264 275 292 296 292 298 303 305 310 313 313 314 318 320 322 326 328 327 328 329 330 331 329 328 328 329 330 330 328 324 321 317 315 315 315 313 310 308 305 304 302 300 297 292 288 286 287 289 291 295 297 298 298 297 292 284 281 284 283
125 64 58 94 266 232 164 124 115 143 183 200 163 133 137 155 160 162 169 174 175 177 182 188 199 221 240 250 265 283 295 304 310 310 307 307 310 311 311 314 318 321 324 326 326 326 328 330 331 331 331 329 328 329 329 329 328 325 322 319 316 315 316 316 313 309 307 306 304 301 298 293 289 287 287 288 292 296 297 297 298 300 297 289 279 281 283
128 94 152 200 227 214 173 160 175 193 190 168 147 138 144 159 163 166 173 176 177 183 190 198 213 234 247 254 273 288 296 309 315 311 307 308 309 308 309 314 319 323 323 323 324 325 327 329 329 330 331 330 328 328 330 330 329 327 324 321 317 315 315 315 314 311 308 306 306 304 300 295 290 287 287 288 291 296 298 298 299 300 299 292 281 278 282
165 171 208 230 260 192 180 180 164 150 149 152 151 151 157 164 169 175 177 177 180 187 198 218 240 256 261 268 289 301 304 309 309 305 307 309 307 307 310 316 321 322 321 321 322 323 325 327 327 328 331 331 329 329 331 331 331 328 325 322 319 315 314 314 314 312 309 306 306 306 303 297 292 289 288 287 290 295 299 300 300 300 298 293 282 275 274
182 154 251 289 55 114 149 150 143 142 147 154 157 157 161 166 172 177 180 184 189 193 214 246 262 274 283 293 303 304 303 303 303 307 310 310 308 310 314 320 322 321 320 321 321 322 324 326 326 328 331 332 330 329 330 332 332 330 325 322 320 317 314 314 314 313 310 307 307 307 305 301 296 291 289 288 288 292 298 301 302 301 298 292 283 275 271
105 112 298 337 69 118 139 142 147 151 152 158 161 158 161 167 170 176 182 189 199 215 243 263 271 285 298 302 300 296 298 304 308 311 312 311 313 316 319 322 323 322 322 322 322 322 324 325 326 328 331 332 331 329 330 331 331 330 328 326 323 321 318 317 317 316 313 310 310 309 307 304 298 293 290 288 287 290 295 300 302 302 300 293 283 277 275
116 218 259 339 96 154 152 149 156 161 159 161 164 162 165 167 166 173 181 190 215 239 257 273 280 288 293 292 293 298 306 310 310 309 310 313 317 321 322 323 323 322 322 322 322 321 322 323 325 327 330 332 332 329 329 330 329 329 330 330 326 323 321 320 320 320 318 316 314 312 310 306 301 296 292 290 288 289 294 299 300 300 301 297 287 278 275
71 272 241 111 91 175 179 167 167 170 169 170 169 166 170 169 164 171 183 201 232 247 264 282 285 284 287 294 305 309 308 307 305 304 308 314 319 322 323 323 323 322 321 320 320 319 320 322 323 325 329 332 332 330 329 329 328 329 332 332 329 326 323 321 321 322 321 319 317 315 313 309 302 296 294 292 290 291 294 297 296 294 294 294 288 276 265
161 229 188 163 137 242 205 185 174 173 177 179 173 169 169 168 169 181 198 216 238 251 268 285 286 296 307 312 315 313 306 302 301 303 309 315 318 322 323 323 322 322 321 319 318 318 319 321 322 326 329 332 333 331 329 329 329 331 333 334 331 327 323 322 324 324 321 319 318 316 315 312 304 297 292 289 289 292 295 296 294 290 288 288 287 275 260
216 226 189 175 161 223 193 181 174 177 181 181 176 171 168 169 177 194 211 226 242 253 269 295 305 312 316 315 314 311 304 300 301 306 311 315 319 322 324 323 323 324 322 320 319 319 320 322 324 327 330 334 335 334 331 330 331 332 335 335 330 325 322 322 324 324 320 317 317 315 313 311 306 301 296 290 286 289 294 296 295 293 290 290 288 277 262
224 221 188 179 168 344 181 177 177 180 180 179 177 173 172 184 198 211 223 234 252 263 283 304 308 311 313 311 310 309 304 300 303 306 311 316 320 322 324 324 324 324 322 321 321 322 322 324 327 329 332 335 337 335 335 334 334 334 336 334 329 325 323 322 323 323 319 317 316 314 311 307 304 302 300 296 292 290 292 297 299 299 298 296 292 281 266
308 212 185 179 174 161 172 173 177 178 176 175 179 182 189 203 212 218 222 237 262 269 286 302 302 306 310 309 307 309 306 305 307 310 314 318 321 322 323 323 323 323 321 320 321 322 324 327 329 331 333 336 336 336 338 339 338 336 335 334 331 329 328 325 321 319 316 315 314 312 310 307 305 303 301 299 298 298 298 300 302 301 299 296 293 286 272
245 182 175 173 167 162 166 169 175 177 174 173 183 195 204 205 207 208 208 223 246 255 281 297 299 307 312 309 310 313 311 310 312 314 316 320 321 323 323 322 322 322 320 318 320 322 325 329 331 332 334 335 336 337 339 340 339 337 334 333 333 332 330 326 320 314 313 314 312 310 309 308 306 304 299 298 301 302 303 305 306 305 303 299 293 288 278
167 167 167 161 151 160 167 173 176 175 176 182 193 201 200 193 192 197 202 214 240 268 294 301 303 310 309 305 311 316 314 313 314 315 317 320 322 324 322 320 320 320 318 318 321 323 326 330 331 331 333 333 334 336 338 338 339 338 334 332 331 330 329 327 321 314 312 314 312 309 308 308 307 303 298 296 299 301 303 307 308 308 308 307 299 290 280
160 167 170 171 171 169 167 168 171 171 175 184 189 192 193 191 191 198 209 234 266 289 302 301 301 304 302 303 311 314 314 315 315 313 316 319 322 323 321 318 319 319 318 319 322 324 328 331 331 331 332 333 334 336 337 337 339 337 334 331 330 330 330 329 322 314 312 315 314 310 307 309 308 302 297 297 299 301 303 305 304 304 306 306 301 296 289
164 167 169 186 181 172 164 163 170 173 176 181 186 190 193 194 197 207 232 278 297 304 307 303 299 301 303 307 313 315 315 316 314 311 314 318 321 322 320 318 318 319 318 320 323 326 331 333 332 331 332 333 334 335 335 336 336 335 333 333 332 331 332 331 326 317 313 317 315 309 306 307 306 302 298 298 301 304 305 304 303 303 304 305 304 304 304
164 165 164 164 169 171 170 169 172 174 175 179 185 188 187 195 218 254 286 302 306 308 309 307 305 307 309 312 316 316 315 314 312 310 312 318 320 320 320 320 320 319 320 322 326 331 334 334 332 332 332 333 335 335 334 334 333 331 330 332 331 330 332 333 328 318 314 317 316 312 311 310 306 305 304 303 304 308 308 306 304 304 304 303 303 305 310
158 157 162 163 166 172 175 171 169 171 169 168 177 189 199 236 289 299 301 304 308 310 311 310 311 314 315 316 317 317 315 313 310 308 312 318 320 319 320 322 322 322 324 327 330 333 334 333 332 333 333 334 337 337 336 334 331 329 328 330 329 328 331 333 328 318 314 316 315 314 315 314 310 309 308 307 309 311 308 305 305 304 301 301 303 304 309
152 145 151 158 163 168 170 168 167 167 164 163 186 247 292 308 306 302 303 307 310 311 310 312 316 317 318 319 318 317 316 314 310 309 313 317 318 318 321 324 323 322 326 329 331 333 333 333 333 333 334 336 339 340 338 336 333 329 328 328 327 326 329 332 329 322 319 318 316 316 317 315 314 315 314 313 313 312 308 306 306 305 302 302 305 305 302
157 150 153 161 164 163 162 164 167 170 170 181 297 311 316 310 301 303 308 309 310 310 311 316 319 319 319 319 318 317 317 315 312 311 314 317 317 320 323 324 322 323 328 331 332 332 333 333 332 333 336 339 342 343 342 340 336 332 329 327 325 325 327 329 327 324 323 321 320 320 318 315 315 317 318 317 316 313 311 312 311 308 306 304 303 299 280
175 166 167 170 169 166 166 170 173 179 200 322 325 318 312 301 297 302 305 304 306 311 313 316 320 321 322 322 321 320 320 318 316 316 317 318 319 322 324 324 323 325 330 333 334 333 334 334 334 336 340 342 343 344 343 343 341 339 337 333 330 329 329 329 326 325 326 324 321 320 319 318 319 320 317 314 313 313 316 319 318 313 310 306 297 282 241
173 164 161 162 161 159 167 180 196 226 282 315 316 309 302 295 294 299 300 301 307 312 313 316 320 323 326 327 327 326 323 320 320 322 320 319 321 324 325 326 326 326 331 337 339 337 335 336 338 341 342 343 344 344 345 346 347 347 345 339 335 333 333 332 327 324 324 323 323 323 322 320 321 319 314 312 312 315 320 323 321 316 311 299 280 264 236
171 165 154 146 139 130 136 252 267 272 290 307 307 302 301 299 297 299 303 307 309 307 308 313 318 323 329 331 330 328 325 323 324 325 321 318 321 325 326 326 327 328 333 340 344 341 338 341 344 345 344 342 343 345 349 350 349 348 345 340 337 337 338 337 335 335 330 327 330 332 329 321 318 318 318 319 319 320 322 325 325 325 321 299 272 259 240
164 161 147 138 132 126 139 285 282 281 290 295 293 302 318 324 317 310 312 313 307 300 303 310 316 323 329 330 329 327 325 324 324 325 321 319 323 326 327 328 328 331 336 342 345 344 345 346 347 346 344 342 343 349 353 351 347 345 344 341 341 344 346 345 345 347 342 336 337 339 334 327 325 328 328 327 326 325 325 328 331 334 332 309 276 254 235
153 152 149 147 142 150 257 273 275 273 273 276 288 310 330 337 328 320 317 310 298 296 303 310 316 324 329 330 328 326 324 323 324 325 323 322 324 329 333 334 332 333 339 344 345 347 350 350 347 345 344 343 347 354 355 350 346 345 344 342 343 348 352 352 352 350 345 341 343 347 343 335 334 335 334 332 333 333 333 336 337 334 323 306 281 255 243
163 166 170 169 170 210 237 246 254 257 260 271 286 303 320 325 322 320 317 305 292 297 306 312 319 327 331 330 329 329 328 327 328 329 327 326 327 332 337 339 335 335 341 345 347 350 353 351 348 346 344 347 353 357 354 350 349 350 347 345 348 353 357 360 357 352 348 347 351 355 353 344 338 338 337 333 336 344 350 352 351 342 323 309 289 261 251
182 185 186 191 205 217 220 225 233 243 256 274 290 303 313 315 314 317 318 304 286 293 306 313 321 329 332 331 333 336 335 333 333 333 332 331 331 333 338 340 339 341 347 350 350 353 354 351 348 347 347 351 357 359 354 352 353 352 346 346 353 359 3 5 2 358 359 2 1 357 352 345 342 344 343 338 343 357 5 3 1 357 344 328 295 255 239
197 204 209 216 220 220 222 228 234 240 254 276 295 306 309 305 306 314 318 307 291 297 306 311 319 329 333 333 335 337 336 335 335 335 334 333 333 335 339 341 342 347 353 353 352 353 353 350 348 348 351 355 359 359 357 356 356 353 352 357 4 6 5 3 359 359 3 6 3 356 350 348 351 355 352 349 354 5 11 7 6 10 15 15 303 211 193
210 217 221 225 228 233 240 244 244 249 260 274 291 309 311 303 300 309 317 314 306 306 308 310 318 329 336 336 335 335 336 337 337 335 334 333 333 336 340 342 344 348 352 352 351 351 351 350 350 351 355 359 1 1 0 0 359 359 5 12 15 11 6 4 4 8 11 11 9 6 4 3 5 4 2 2 6 12 16 18 22 27 38 64 124 150 163
222 223 225 230 238 247 254 254 253 257 263 269 280 305 313 304 297 300 310 314 311 308 306 308 318 330 336 336 336 334 335 337 338 338 338 338 338 339 340 342 344 348 349 347 348 349 349 349 352 355 357 0 2 4 5 5 5 8 14 18 19 20 18 17 22 25 23 19 20 22 21 17 12 7 5 8 10 13 20 27 35 50 83 113 131 146 163
230 226 227 235 247 258 264 264 260 258 261 267 275 290 303 305 302 301 304 307 310 309 306 306 318 332 336 338 338 336 335 335 336 337 339 341 345 347 345 342 342 346 348 346 347 348 349 350 353 356 358 1 4 6 7 9 12 17 22 23 24 28 28 28 31 32 28 25 29 31 29 26 22 16 14 15 14 15 24 32 38 62 117 142 151 156 164
235 232 233 243 258 270 275 272 265 262 265 268 268 271 284 300 306 304 302 304 308 310 307 305 315 329 335 339 343 342 338 335 335 335 336 339 344 349 349 344 340 342 347 347 348 349 349 351 354 358 359 2 6 9 10 12 17 22 26 26 28 30 30 29 30 29 26 28 34 35 33 34 33 28 29 36 33 27 30 39 50 81 123 139 142 141 139
249 240 237 248 267 280 287 287 281 276 274 271 266 265 276 296 306 304 301 302 306 309 306 302 307 319 325 333 342 345 343 341 341 338 334 334 340 346 346 342 339 340 346 348 350 350 350 352 356 359 0 3 8 11 12 14 19 24 29 30 31 32 31 30 28 26 25 29 34 35 36 42 45 39 38 45 47 42 43 51 64 81 100 108 107 104 101
253 242 241 254 271 282 291 299 299 295 288 279 270 268 275 289 299 299 298 300 304 307 303 296 299 307 310 315 330 340 343 345 347 345 337 335 340 344 342 338 336 339 346 351 353 353 353 356 0 3 3 6 10 14 15 15 18 25 31 35 37 37 36 33 30 27 27 32 38 40 40 44 49 47 44 47 50 52 55 60 64 68 75 79 80 82 84
246 245 253 264 272 275 278 287 297 304 304 293 277 271 277 286 291 291 294 299 304 306 301 293 293 299 300 302 315 328 336 341 345 345 341 338 338 339 339 338 335 336 345 353 357 358 359 3 7 8 9 11 15 17 18 18 19 23 30 36 40 44 47 44 40 36 35 38 45 48 48 49 51 51 49 48 51 55 60 65 68 70 72 73 75 77 79
249 257 264 269 273 275 275 282 295 308 312 303 290 284 286 286 284 285 291 298 303 305 301 294 291 293 296 298 303 312 324 335 339 340 339 336 331 333 339 342 337 336 344 354 359 1 5 10 13 13 15 18 20 21 22 22 21 23 28 34 38 44 49 50 48 46 47 49 51 54 57 59 60 58 56 56 57 60 64 68 72 74 75 77 79 81 82
255 265 271 276 281 284 284 287 298 308 308 296 285 284 283 279 281 288 295 298 299 300 299 295 292 293 297 300 301 304 314 327 336 338 336 329 323 331 342 345 340 338 345 353 358 2 8 14 16 17 18 21 23 25 26 26 25 25 28 31 36 41 47 51 53 53 54 56 58 60 62 64 65 65 66 68 68 69 70 72 74 78 82 84 86 86 87
262 270 277 283 288 291 290 291 296 302 298 281 271 273 277 279 284 292 297 298 299 300 298 293 290 292 297 301 304 305 310 322 333 339 336 323 318 332 344 346 341 340 346 353 357 1 8 14 16 15 16 18 23 27 29 30 30 30 30 32 35 39 43 48 52 54 54 57 60 62 63 63 64 66 68 69 70 72 73 74 76 79 81 84 86 88 90
270 276 281 285 291 297 297 289 283 283 283 278 275 278 280 281 284 289 293 296 300 301 297 292 291 295 299 303 307 309 310 318 332 341 339 325 318 331 341 342 339 338 344 353 358 0 5 11 13 12 12 16 22 28 32 34 34 34 35 36 37 39 42 45 48 50 52 54 57 59 61 63 65 67 69 71 72 73 75 76 77 78 79 81 84 86 87